When you browse on this site, cookies collect data to enhance your experience and personalize the content and advertising you see.
Visit our Privacy Policy to learn more. By continuing to use the site, you agree to this use of cookies and data.
  • In Hungary
  • List of Countries
  • For 7 days
  • Water Temperature
  • Satellite Maps
  • Weather Map
  • News
  • Weather Widgets
  • user-avatar
    Login

    Hourly Weather Mainz

    Today, 19 April, Friday

    Time Temperature Precipitation Wind Pressure Humidity
    00:00 +14°C° 0 mm 3 mps 760 mmHg 57%
    01:00 +14°C° 0 mm 2 mps 760 mmHg 58%
    02:00 +14°C° 0 mm 2 mps 760 mmHg 62%
    03:00 +13°C° 0 mm 2 mps 760 mmHg 66%
    04:00 +12°C° 0 mm 2 mps 760 mmHg 69%
    05:00 +12°C° 0 mm 2 mps 760 mmHg 69%
    06:00 +13°C° 0 mm 2 mps 761 mmHg 69%
    07:00 +13°C° 0 mm 2 mps 761 mmHg 69%
    08:00 +13°C° 0 mm 3 mps 761 mmHg 63%
    09:00 +16°C° 0 mm 3 mps 761 mmHg 57%
    10:00 +18°C° 0 mm 3 mps 761 mmHg 51%
    11:00 +19°C° 0 mm 3 mps 761 mmHg 46%
    12:00 +21°C° 0 mm 4 mps 761 mmHg 41%
    13:00 +22°C° 0 mm 4 mps 761 mmHg 37%
    14:00 +23°C° 0 mm 4 mps 761 mmHg 35%
    15:00 +23°C° 0 mm 4 mps 761 mmHg 34%
    16:00 +23°C° 0 mm 4 mps 761 mmHg 33%
    17:00 +22°C° 0 mm 3 mps 761 mmHg 36%
    18:00 +20°C° 0 mm 3 mps 761 mmHg 40%
    19:00 +19°C° 0 mm 2 mps 761 mmHg 43%
    20:00 +18°C° 0 mm 2 mps 761 mmHg 47%
    21:00 +17°C° 0 mm 2 mps 762 mmHg 51%
    22:00 +16°C° 0 mm 2 mps 762 mmHg 55%
    23:00 +15°C° 0 mm 2 mps 762 mmHg 59%

    Tomorrow, 20 April, Saturday

    Time Temperature Precipitation Wind Pressure Humidity
    00:00 +15°C° 0 mm 2 mps 762 mmHg 63%
    01:00 +14°C° 0 mm 2 mps 762 mmHg 67%
    02:00 +14°C° 0 mm 2 mps 762 mmHg 68%
    03:00 +13°C° 0 mm 2 mps 762 mmHg 69%
    04:00 +12°C° 0 mm 2 mps 762 mmHg 70%
    05:00 +13°C° 0 mm 2 mps 762 mmHg 69%
    06:00 +13°C° 0 mm 2 mps 762 mmHg 68%
    07:00 +13°C° 0 mm 2 mps 762 mmHg 67%
    08:00 +15°C° 0 mm 2 mps 762 mmHg 60%
    09:00 +17°C° 0 mm 2 mps 762 mmHg 54%
    10:00 +19°C° 0 mm 3 mps 762 mmHg 47%
    11:00 +20°C° 0 mm 3 mps 762 mmHg 41%
    12:00 +21°C° 0 mm 3 mps 761 mmHg 36%
    13:00 +23°C° 0 mm 4 mps 761 mmHg 30%
    14:00 +24°C° 0 mm 3 mps 761 mmHg 30%
    15:00 +24°C° 0 mm 3 mps 760 mmHg 29%
    16:00 +25°C° 0 mm 3 mps 760 mmHg 29%
    17:00 +22°C° 0 mm 3 mps 760 mmHg 34%
    18:00 +21°C° 0 mm 2 mps 760 mmHg 40%
    19:00 +20°C° 0 mm 2 mps 760 mmHg 45%
    20:00 +19°C° 0 mm 2 mps 760 mmHg 51%
    21:00 +18°C° 0 mm 2 mps 760 mmHg 57%
    22:00 +16°C° 0 mm 3 mps 760 mmHg 62%
    23:00 +16°C° 0 mm 3 mps 760 mmHg 65%

    Day after tomorrow, 21 April, Sunday

    Time Temperature Precipitation Wind Pressure Humidity
    00:00 +15°C° 0 mm 2 mps 760 mmHg 67%
    01:00 +14°C° 0 mm 2 mps 760 mmHg 70%
    02:00 +14°C° 0 mm 2 mps 760 mmHg 71%
    03:00 +13°C° 0 mm 2 mps 759 mmHg 73%
    04:00 +12°C° 0 mm 2 mps 759 mmHg 74%
    05:00 +13°C° 0 mm 2 mps 759 mmHg 73%
    06:00 +13°C° 0 mm 2 mps 759 mmHg 72%
    07:00 +13°C° 0 mm 2 mps 759 mmHg 71%
    08:00 +15°C° 0 mm 2 mps 758 mmHg 63%
    09:00 +17°C° 0 mm 2 mps 758 mmHg 55%
    10:00 +19°C° 0 mm 2 mps 757 mmHg 48%
    11:00 +20°C° 0 mm 2 mps 757 mmHg 43%
    12:00 +21°C° 0 mm 2 mps 756 mmHg 39%
    13:00 +24°C° 0 mm 3 mps 756 mmHg 34%
    14:00 +24°C° 0 mm 3 mps 755 mmHg 34%
    15:00 +24°C° 0 mm 3 mps 755 mmHg 34%
    16:00 +24°C° 0 mm 3 mps 754 mmHg 34%
    17:00 +23°C° 0 mm 2 mps 754 mmHg 38%
    18:00 +21°C° 0 mm 2 mps 753 mmHg 43%
    19:00 +19°C° 0 mm 2 mps 753 mmHg 47%
    20:00 +18°C° 0 mm 2 mps 753 mmHg 51%
    21:00 +17°C° 0 mm 2 mps 753 mmHg 55%
    22:00 +16°C° 0 mm 2 mps 753 mmHg 59%
    23:00 +15°C° 0 mm 2 mps 753 mmHg 62%

    22 April, Monday

    Time Temperature Precipitation Wind Pressure Humidity
    00:00 +15°C° 0 mm 2 mps 753 mmHg 65%
    01:00 +14°C° 0 mm 2 mps 752 mmHg 67%
    02:00 +13°C° 0 mm 2 mps 752 mmHg 68%
    03:00 +13°C° 0 mm 2 mps 752 mmHg 68%
    04:00 +12°C° 0 mm 2 mps 751 mmHg 69%
    05:00 +12°C° 0 mm 2 mps 751 mmHg 67%
    06:00 +13°C° 0 mm 2 mps 750 mmHg 65%
    07:00 +13°C° 0 mm 2 mps 750 mmHg 63%
    08:00 +14°C° 0 mm 3 mps 750 mmHg 56%
    09:00 +15°C° 0 mm 4 mps 749 mmHg 50%
    10:00 +18°C° 0 mm 4 mps 749 mmHg 43%
    11:00 +19°C° 0 mm 4 mps 748 mmHg 40%
    12:00 +21°C° 0 mm 5 mps 747 mmHg 38%
    13:00 +22°C° 0 mm 5 mps 747 mmHg 35%
    14:00 +22°C° 0 mm 5 mps 746 mmHg 35%
    15:00 +22°C° 0 mm 5 mps 745 mmHg 36%
    16:00 +22°C° 0 mm 5 mps 745 mmHg 36%
    17:00 +21°C° 0 mm 5 mps 744 mmHg 40%
    18:00 +20°C° 0 mm 5 mps 744 mmHg 45%
    19:00 +17°C° 0 mm 5 mps 744 mmHg 49%
    20:00 +16°C° 0 mm 5 mps 744 mmHg 51%
    21:00 +15°C° 0 mm 5 mps 744 mmHg 53%
    22:00 +14°C° 0 mm 5 mps 743 mmHg 55%
    23:00 +13°C° 0 mm 4 mps 743 mmHg 59%

    23 April, Tuesday

    Time Temperature Precipitation Wind Pressure Humidity
    00:00 +12°C° 0 mm 4 mps 743 mmHg 64%
    01:00 +11°C° 0 mm 3 mps 742 mmHg 69%
    02:00 +11°C° 0 mm 3 mps 742 mmHg 73%
    03:00 +10°C° 0 mm 3 mps 742 mmHg 77%
    04:00 +10°C° 0 mm 3 mps 741 mmHg 81%
    05:00 +10°C° 0 mm 3 mps 741 mmHg 81%
    06:00 +10°C° 0 mm 2 mps 741 mmHg 80%
    07:00 +10°C° 0 mm 2 mps 740 mmHg 80%
    08:00 +13°C° 0 mm 2 mps 740 mmHg 73%
    09:00 +15°C° 0 mm 1 mps 740 mmHg 65%
    10:00 +18°C° 0 mm 1 mps 740 mmHg 58%
    11:00 +20°C° 0 mm 1 mps 740 mmHg 52%
    12:00 +20°C° 0 mm 0 mps 740 mmHg 46%
    13:00 +22°C° 0 mm 0 mps 739 mmHg 39%
    14:00 +22°C° 0 mm 0 mps 739 mmHg 39%
    15:00 +24°C° 0 mm 1 mps 739 mmHg 39%
    16:00 +24°C° 0 mm 1 mps 739 mmHg 38%
    17:00 +23°C° 0 mm 1 mps 739 mmHg 43%
    18:00 +22°C° 0 mm 1 mps 740 mmHg 47%
    19:00 +21°C° 0 mm 1 mps 740 mmHg 52%
    20:00 +20°C° 0 mm 1 mps 741 mmHg 54%
    21:00 +19°C° 0 mm 1 mps 741 mmHg 56%
    22:00 +18°C° 0 mm 1 mps 742 mmHg 58%
    23:00 +18°C° 0 mm 1 mps 742 mmHg 61%

    24 April, Wednesday

    Time Temperature Precipitation Wind Pressure Humidity
    00:00 +16°C° 0 mm 1 mps 743 mmHg 65%
    01:00 +16°C° 0 mm 1 mps 743 mmHg 68%
    02:00 +16°C° 0.1 mm 1 mps 744 mmHg 73%
    03:00 +15°C° 0.1 mm 1 mps 744 mmHg 78%
    04:00 +15°C° 0.1 mm 2 mps 745 mmHg 82%
    05:00 +15°C° 0 mm 2 mps 745 mmHg 81%
    06:00 +15°C° 0 mm 2 mps 746 mmHg 80%
    07:00 +16°C° 0 mm 2 mps 746 mmHg 79%
    08:00 +18°C° 0 mm 3 mps 747 mmHg 71%
    09:00 +19°C° 0 mm 3 mps 747 mmHg 64%
    10:00 +21°C° 0 mm 4 mps 748 mmHg 56%
    11:00 +22°C° 0 mm 4 mps 748 mmHg 51%
    12:00 +23°C° 0 mm 4 mps 748 mmHg 46%
    13:00 +26°C° 0 mm 5 mps 748 mmHg 41%
    14:00 +26°C° 0 mm 4 mps 748 mmHg 41%
    15:00 +26°C° 0 mm 4 mps 749 mmHg 42%
    16:00 +26°C° 0 mm 3 mps 749 mmHg 42%
    17:00 +25°C° 0 mm 2 mps 749 mmHg 47%
    18:00 +23°C° 0 mm 1 mps 749 mmHg 53%
    19:00 +20°C° 0 mm 0 mps 749 mmHg 58%
    20:00 +22°C° 0 mm 1 mps 749 mmHg 60%
    21:00 +21°C° 0 mm 1 mps 749 mmHg 62%
    22:00 +20°C° 0 mm 1 mps 749 mmHg 64%
    23:00 +19°C° 0 mm 2 mps 749 mmHg 66%
    Show more